SV4JYD-13 Weather Reports


time (UTC)temp
C
wind
direction
speed
KPH
gust
KPH
rain 1hr
cm
rain 24hr
cm
rain mn
cm
humidity
%
barometer
mb
20260504050004 8 304 8.0 8.0 0.00 0.00 0.00 10 1020.0
20260504044504 8 304 8.0 9.7 0.00 0.00 0.00 10 1020.0
20260504043004 7 291 8.0 8.0 0.00 0.00 0.00 10 1020.0
20260504041503 7 291 8.0 8.0 0.00 0.00 0.00 10 1020.0
20260504040003 7 291 8.0 8.0 0.00 0.00 0.00 10 1020.0
20260504034503 7 291 8.0 8.0 0.00 0.00 0.00 10 1020.0
20260504033003 7 291 8.0 8.0 0.00 0.00 0.00 10 1020.0
20260504031502 7 291 8.0 8.0 0.00 0.00 0.00 10 1020.0
20260504024502 7 291 8.0 8.0 0.00 0.00 0.00 10 1020.0
20260504021501 6 291 8.0 8.0 0.00 0.00 0.00 10 1020.0
20260504020001 6 291 8.0 9.7 0.00 0.00 0.00 10 1020.0
20260504014501 6 291 8.0 9.7 0.00 0.00 0.00 10 1020.0
20260504013001 6 289 6.4 9.7 0.00 0.00 0.00 10 1020.0
20260504011500 6 289 6.4 9.7 0.00 0.00 0.00 10 1020.0
20260504010000 6 289 6.4 9.7 0.00 0.00 0.00 10 1020.0
20260504004500 6 298 6.4 6.4 0.00 0.00 0.00 10 1020.0
20260504003000 6 293 6.4 6.4 0.00 0.00 0.00 10 1020.0
20260504001500 7 293 6.4 6.4 0.00 0.00 0.00 10 1020.0
20260503235959 7 293 6.4 6.4 0.00 0.00 0.00 10 1020.0
20260503234459 7 293 6.4 6.4 0.00 0.00 0.00 10 1020.0
20260503232959 7 289 3.2 3.2 0.00 0.00 0.00 10 1020.0
20260503231458 7 317 1.6 1.6 0.00 0.00 0.00 10 1020.0
20260503225958 7 317 1.6 1.6 0.00 0.00 0.00 10 1020.0
20260503224458 7 317 1.6 1.6 0.00 0.00 0.00 10 1020.0
20260503222958 7 317 1.6 1.6 0.00 0.00 0.00 10 1020.0
20260503221457 7 317 1.6 1.6 0.00 0.00 0.00 10 1020.0
20260503215957 8 317 1.6 1.6 0.00 0.00 0.00 10 1020.0
20260503214457 7 317 1.6 1.6 0.00 0.00 0.00 10 1020.0
20260503212957 8 317 1.6 1.6 0.00 0.00 0.00 10 1020.0
20260503211456 8 317 1.6 3.2 0.00 0.00 0.00 10 1020.0
20260503205956 7 95 1.6 1.6 0.00 0.00 0.00 10 1020.0
20260503204456 8 95 1.6 1.6 0.00 0.00 0.00 10 1020.0
20260503202956 8 95 1.6 1.6 0.00 0.00 0.00 10 1020.0
20260503201455 8 95 1.6 1.6 0.00 0.00 0.00 10 1020.0
20260503195955 8 95 1.6 1.6 0.00 0.00 0.00 99 1020.0
20260503194455 8 95 1.6 1.6 0.00 0.00 0.00 98 1020.0
20260503192955 9 95 1.6 1.6 0.00 0.00 0.00 96 1020.0
20260503191454 10 95 1.6 1.6 0.00 0.00 0.00 91 1020.0
20260503185954 10 95 1.6 1.6 0.00 0.00 0.00 82 1020.0
20260503184454 11 95 1.6 1.6 0.00 0.00 0.00 73 1020.0
20260503182954 12 95 1.6 1.6 0.00 0.00 0.00 67 1020.0
20260503181453 12 95 1.6 1.6 0.00 0.00 0.00 65 1019.0
20260503175953 12 95 1.6 1.6 0.00 0.00 0.00 68 1019.0
20260503174453 13 95 1.6 1.6 0.00 0.00 0.00 59 1019.0
20260503172953 13 95 1.6 1.6 0.00 0.00 0.00 68 1019.0
20260503171452 13 95 1.6 1.6 0.00 0.00 0.00 70 1019.0
20260503081104 7 339 1.6 1.6 0.00 0.00 0.00 92 1020.0
20260503072603 6 339 1.6 1.6 0.00 0.00 0.00 91 1019.0
20260503071103 7 339 1.6 1.6 0.00 0.00 0.00 91 1019.0
20260503054101 10 339 1.6 1.6 0.00 0.00 0.00 92 1018.0
20260503052601 9 339 1.6 1.6 0.00 0.00 0.00 92 1018.0